Year,Month,Day,Hour,Minute,Value (Times are PST for temperature in C)
2007,09,24,00,00,6.40
2007,09,24,00,01,6.40
2007,09,24,00,02,6.40
2007,09,24,00,03,6.40
2007,09,24,00,04,6.40
2007,09,24,00,05,6.40
2007,09,24,00,06,6.40
2007,09,24,00,07,6.30
2007,09,24,00,08,6.30
2007,09,24,00,09,6.30
2007,09,24,00,10,6.30
2007,09,24,00,11,6.30
2007,09,24,00,12,6.30
2007,09,24,00,13,6.30
2007,09,24,01,02,5.90
2007,09,24,01,03,5.90
2007,09,24,01,04,5.90
2007,09,24,01,05,5.90
2007,09,24,01,06,5.80
2007,09,24,01,07,5.80
2007,09,24,01,08,5.80
2007,09,24,01,09,5.80
2007,09,24,01,10,5.80
2007,09,24,01,11,5.80
2007,09,24,01,12,5.80
2007,09,24,01,13,5.80
2007,09,24,01,14,5.70
2007,09,24,01,15,5.70
2007,09,24,01,16,5.70
2007,09,24,01,17,5.70
2007,09,24,01,18,5.70
2007,09,24,01,19,5.70
2007,09,24,01,20,5.70
2007,09,24,01,21,5.60
2007,09,24,01,22,5.60
2007,09,24,01,23,5.60
2007,09,24,01,24,5.50
2007,09,24,01,25,5.50
2007,09,24,01,26,5.50
2007,09,24,01,27,5.50
2007,09,24,01,28,5.40
2007,09,24,01,29,5.40
2007,09,24,01,30,5.40
2007,09,24,01,31,5.40
2007,09,24,01,32,5.40
2007,09,24,01,33,5.40
2007,09,24,01,34,5.40
2007,09,24,01,35,5.40
2007,09,24,01,36,5.40
2007,09,24,01,37,5.40
2007,09,24,01,38,5.40
2007,09,24,01,39,5.40
2007,09,24,01,40,5.40
2007,09,24,01,41,5.40
2007,09,24,01,42,5.40
2007,09,24,01,43,5.40
2007,09,24,01,44,5.40
2007,09,24,01,45,5.40
2007,09,24,01,46,5.40
2007,09,24,01,47,5.40
2007,09,24,01,48,5.40
2007,09,24,01,49,5.30
2007,09,24,01,50,5.30
2007,09,24,01,51,5.30
2007,09,24,01,52,5.30
2007,09,24,01,53,5.30
2007,09,24,01,54,5.30
2007,09,24,01,55,5.30
2007,09,24,01,56,5.30
2007,09,24,01,57,5.30
2007,09,24,01,58,5.30
2007,09,24,01,59,5.30
2007,09,24,02,00,5.30
2007,09,24,02,01,5.20
2007,09,24,02,02,5.20
2007,09,24,02,03,5.20
2007,09,24,02,04,5.20
2007,09,24,02,05,5.20
2007,09,24,02,06,5.20
2007,09,24,02,07,5.10
2007,09,24,02,08,5.10
2007,09,24,02,09,5.10
2007,09,24,02,10,5.10
2007,09,24,02,11,5.10
2007,09,24,02,12,5.10
2007,09,24,02,13,5.10
2007,09,24,02,14,5.10
2007,09,24,02,15,5.10
2007,09,24,02,16,5.10
2007,09,24,02,17,5.10
2007,09,24,02,18,5.10
2007,09,24,02,19,5.10
2007,09,24,02,20,5.10
2007,09,24,02,21,5.10
2007,09,24,02,22,5.00
2007,09,24,02,23,5.00
2007,09,24,02,24,5.00
2007,09,24,02,25,5.00
2007,09,24,02,26,5.00
2007,09,24,02,27,4.90
2007,09,24,02,28,4.90
2007,09,24,02,29,4.90
2007,09,24,02,30,4.90
2007,09,24,02,31,4.90
2007,09,24,02,32,4.90
2007,09,24,02,33,4.90
2007,09,24,02,34,4.90
2007,09,24,02,35,4.80
2007,09,24,02,36,4.80
2007,09,24,02,37,4.80
2007,09,24,02,38,4.80
2007,09,24,02,39,4.80
2007,09,24,02,40,4.80
2007,09,24,02,41,4.80
2007,09,24,02,42,4.80
2007,09,24,02,43,4.80
2007,09,24,02,44,4.80
2007,09,24,02,45,4.80
2007,09,24,02,46,4.80
2007,09,24,02,47,4.80
2007,09,24,02,48,4.80
2007,09,24,02,49,4.70
2007,09,24,02,50,4.70
2007,09,24,02,51,4.70
2007,09,24,02,52,4.70
2007,09,24,02,53,4.70
2007,09,24,02,54,4.70
2007,09,24,02,55,4.60
2007,09,24,02,56,4.60
2007,09,24,02,57,4.60
2007,09,24,02,58,4.60
2007,09,24,02,59,4.60
2007,09,24,03,00,4.60
2007,09,24,03,01,4.60
2007,09,24,03,02,4.60
2007,09,24,03,03,4.60
2007,09,24,03,04,4.60
2007,09,24,03,05,4.50
2007,09,24,03,06,4.50
2007,09,24,03,07,4.50
2007,09,24,03,08,4.50
2007,09,24,03,09,4.50
2007,09,24,03,10,4.50
2007,09,24,03,11,4.50
2007,09,24,03,12,4.50
2007,09,24,03,13,4.50
2007,09,24,03,14,4.50
2007,09,24,03,15,4.60
2007,09,24,03,16,4.60
2007,09,24,03,17,4.60
2007,09,24,03,18,4.60
2007,09,24,03,19,4.60
2007,09,24,03,20,4.60
2007,09,24,03,21,4.60
2007,09,24,03,22,4.60
2007,09,24,03,23,4.50
2007,09,24,03,24,4.50
2007,09,24,03,25,4.50
2007,09,24,03,26,4.50
2007,09,24,03,27,4.50
2007,09,24,03,28,4.50
2007,09,24,03,29,4.50
2007,09,24,03,30,4.40
2007,09,24,03,31,4.40
2007,09,24,03,32,4.40
2007,09,24,03,33,4.40
2007,09,24,03,34,4.40
2007,09,24,03,35,4.50
2007,09,24,03,36,4.40
2007,09,24,03,37,4.40
2007,09,24,03,38,4.40
2007,09,24,03,39,4.40
2007,09,24,03,40,4.40
2007,09,24,03,41,4.40
2007,09,24,03,42,4.40
2007,09,24,03,43,4.40
2007,09,24,03,44,4.30
2007,09,24,03,45,4.30
2007,09,24,03,46,4.30
2007,09,24,03,47,4.30
2007,09,24,03,48,4.30
2007,09,24,03,49,4.30
2007,09,24,03,50,4.30
2007,09,24,03,51,4.30
2007,09,24,03,52,4.30
2007,09,24,03,53,4.30
2007,09,24,03,54,4.30
2007,09,24,03,55,4.30
2007,09,24,03,56,4.30
2007,09,24,03,57,4.30
2007,09,24,03,58,4.30
2007,09,24,03,59,4.30
2007,09,24,04,00,4.30
2007,09,24,04,01,4.30
2007,09,24,04,02,4.30
2007,09,24,04,03,4.30
2007,09,24,04,04,4.30
2007,09,24,04,05,4.30
2007,09,24,04,06,4.30
2007,09,24,04,07,4.30
2007,09,24,04,08,4.30
2007,09,24,04,09,4.30
2007,09,24,04,10,4.30
2007,09,24,04,11,4.30
2007,09,24,04,12,4.20
2007,09,24,04,13,4.20
2007,09,24,04,14,4.20
2007,09,24,04,15,4.20
2007,09,24,04,16,4.20
2007,09,24,04,17,4.10
2007,09,24,04,18,4.10
2007,09,24,04,19,4.10
2007,09,24,04,20,4.10
2007,09,24,04,21,4.10
2007,09,24,04,22,4.00
2007,09,24,04,23,4.00
2007,09,24,04,24,4.00
2007,09,24,04,25,4.00
2007,09,24,04,26,4.10
2007,09,24,04,27,4.10
2007,09,24,04,28,4.10
2007,09,24,04,29,4.10
2007,09,24,04,30,4.10
2007,09,24,04,31,4.10
2007,09,24,04,32,4.10
2007,09,24,04,33,4.10
2007,09,24,04,34,4.10
2007,09,24,04,35,4.10
2007,09,24,04,36,4.10
2007,09,24,04,37,4.10
2007,09,24,04,38,4.10
2007,09,24,04,39,4.10
2007,09,24,04,40,4.10
2007,09,24,04,41,4.00
2007,09,24,04,42,4.00
2007,09,24,04,43,4.00
2007,09,24,04,44,4.00
2007,09,24,04,45,3.90
2007,09,24,04,46,3.90
2007,09,24,04,47,3.90
2007,09,24,04,48,3.90
2007,09,24,04,49,3.90
2007,09,24,04,50,3.90
2007,09,24,04,51,3.90
2007,09,24,04,52,3.90
2007,09,24,04,53,3.80
2007,09,24,04,54,3.80
2007,09,24,04,55,3.80
2007,09,24,04,56,3.80
2007,09,24,04,57,3.80
2007,09,24,04,58,3.80
2007,09,24,04,59,3.80
2007,09,24,05,00,3.80
2007,09,24,05,01,3.80
2007,09,24,05,02,3.80
2007,09,24,05,03,3.80
2007,09,24,05,04,3.80
2007,09,24,05,05,3.80
2007,09,24,05,06,3.80
2007,09,24,05,07,3.80
2007,09,24,05,08,3.80
2007,09,24,05,09,3.80
2007,09,24,05,10,3.80
2007,09,24,05,11,3.80
2007,09,24,05,12,3.80
2007,09,24,05,13,3.80
2007,09,24,05,14,3.80
2007,09,24,05,15,3.80
2007,09,24,05,16,3.80
2007,09,24,05,17,3.80
2007,09,24,05,18,3.80
2007,09,24,05,19,3.80
2007,09,24,05,20,3.80
2007,09,24,05,21,3.80
2007,09,24,05,22,3.80
2007,09,24,05,23,3.70
2007,09,24,05,24,3.70
2007,09,24,05,25,3.70
2007,09,24,05,26,3.70
2007,09,24,05,27,3.70
2007,09,24,05,28,3.70
2007,09,24,05,29,3.70
2007,09,24,05,30,3.70
2007,09,24,05,31,3.70
2007,09,24,05,32,3.70
2007,09,24,05,33,3.70
2007,09,24,05,34,3.70
2007,09,24,05,35,3.70
2007,09,24,05,36,3.70
2007,09,24,05,37,3.70
2007,09,24,05,38,3.70
2007,09,24,05,39,3.70
2007,09,24,05,40,3.60
2007,09,24,05,41,3.60
2007,09,24,05,42,3.60
2007,09,24,05,43,3.60
2007,09,24,05,44,3.60
2007,09,24,05,45,3.60
2007,09,24,05,46,3.60
2007,09,24,05,47,3.60
2007,09,24,05,48,3.50
2007,09,24,05,49,3.50
2007,09,24,05,50,3.50
2007,09,24,05,51,3.50
2007,09,24,05,52,3.50
2007,09,24,05,53,3.40
2007,09,24,05,54,3.40
2007,09,24,05,55,3.40
2007,09,24,05,56,3.40
2007,09,24,05,57,3.40
2007,09,24,05,58,3.50
2007,09,24,05,59,3.50
2007,09,24,06,00,3.50
2007,09,24,06,01,3.50
2007,09,24,06,02,3.50
2007,09,24,06,03,3.50
2007,09,24,06,04,3.50
2007,09,24,06,05,3.40
2007,09,24,06,06,3.40
2007,09,24,06,07,3.40
2007,09,24,06,08,3.40
2007,09,24,06,09,3.40
2007,09,24,06,10,3.40
2007,09,24,06,11,3.40
2007,09,24,06,12,3.40
2007,09,24,06,13,3.50
2007,09,24,06,14,3.50
2007,09,24,06,15,3.50
2007,09,24,06,16,3.50
2007,09,24,06,17,3.50
2007,09,24,06,18,3.50
2007,09,24,06,19,3.50
2007,09,24,06,20,3.50
2007,09,24,06,21,3.50
2007,09,24,06,22,3.50
2007,09,24,06,23,3.50
2007,09,24,06,24,3.50
2007,09,24,06,25,3.50
2007,09,24,06,26,3.50
2007,09,24,06,27,3.50
2007,09,24,06,28,3.50
2007,09,24,06,29,3.50
2007,09,24,06,30,3.50
2007,09,24,06,31,3.50
2007,09,24,06,32,3.50
2007,09,24,06,33,3.50
2007,09,24,06,34,3.50
2007,09,24,06,35,3.50
2007,09,24,06,36,3.50
2007,09,24,06,37,3.50
2007,09,24,06,38,3.50
2007,09,24,06,39,3.50
2007,09,24,06,40,3.50
2007,09,24,06,41,3.40
2007,09,24,06,42,3.40
2007,09,24,06,43,3.40
2007,09,24,06,44,3.40
2007,09,24,06,45,3.40
2007,09,24,06,46,3.40
2007,09,24,06,47,3.40
2007,09,24,06,48,3.40
2007,09,24,06,49,3.30
2007,09,24,06,50,3.40
2007,09,24,06,51,3.40
2007,09,24,06,52,3.40
2007,09,24,06,53,3.40
2007,09,24,06,54,3.40
2007,09,24,06,55,3.30
2007,09,24,06,56,3.40
2007,09,24,06,57,3.40
2007,09,24,06,58,3.40
2007,09,24,06,59,3.40
2007,09,24,07,00,3.40
2007,09,24,07,01,3.40
2007,09,24,07,02,3.50
2007,09,24,07,03,3.50
2007,09,24,07,04,3.50
2007,09,24,07,05,3.50
2007,09,24,07,06,3.50
2007,09,24,07,07,3.50
2007,09,24,07,08,3.50
2007,09,24,07,09,3.60
2007,09,24,07,10,3.60
2007,09,24,07,11,3.60
2007,09,24,07,12,3.60
2007,09,24,07,13,3.60
2007,09,24,07,14,3.60
2007,09,24,07,15,3.60
2007,09,24,07,16,3.60
2007,09,24,07,17,3.60
2007,09,24,07,18,3.60
2007,09,24,07,19,3.70
2007,09,24,07,20,3.70
2007,09,24,07,21,3.80
2007,09,24,07,22,3.80
2007,09,24,07,23,3.80
2007,09,24,07,24,3.90
2007,09,24,07,25,3.90
2007,09,24,07,26,3.90
2007,09,24,07,27,3.90
2007,09,24,07,28,3.90
2007,09,24,07,29,3.90
2007,09,24,07,30,3.90
2007,09,24,07,31,3.90
2007,09,24,07,32,3.90
2007,09,24,07,33,3.90
2007,09,24,07,34,3.90
2007,09,24,07,35,3.90
2007,09,24,07,36,4.00
2007,09,24,07,37,4.10
2007,09,24,07,38,4.10
2007,09,24,07,39,4.10
2007,09,24,07,40,4.20
2007,09,24,07,41,4.20
2007,09,24,07,42,4.30
2007,09,24,07,43,4.30
2007,09,24,07,44,4.40
2007,09,24,07,45,4.40
2007,09,24,07,46,4.50
2007,09,24,07,47,4.50
2007,09,24,07,48,4.50
2007,09,24,07,49,4.60
2007,09,24,07,50,4.60
2007,09,24,07,51,4.70
2007,09,24,07,52,4.70
2007,09,24,07,53,4.70
2007,09,24,07,54,4.70
2007,09,24,07,55,4.80
2007,09,24,07,56,4.80
2007,09,24,07,57,4.80
2007,09,24,07,58,4.80
2007,09,24,07,59,4.80
2007,09,24,08,00,4.80
2007,09,24,08,01,4.90
2007,09,24,08,02,4.90
2007,09,24,08,03,4.90
2007,09,24,08,04,5.00
2007,09,24,08,05,5.10
2007,09,24,08,06,5.10
2007,09,24,08,07,5.10
2007,09,24,08,08,5.10
2007,09,24,08,09,5.20
2007,09,24,08,10,5.20
2007,09,24,08,11,5.20
2007,09,24,08,12,5.30
2007,09,24,08,13,5.30
2007,09,24,08,14,5.30
2007,09,24,08,15,5.40
2007,09,24,08,16,5.40
2007,09,24,08,17,5.50
2007,09,24,08,18,5.50
2007,09,24,08,19,5.60
2007,09,24,08,20,5.60
2007,09,24,08,21,5.70
2007,09,24,08,22,5.70
2007,09,24,08,23,5.70
2007,09,24,08,24,5.80
2007,09,24,08,25,5.80
2007,09,24,08,26,5.90
2007,09,24,08,27,5.90
2007,09,24,08,28,6.00
2007,09,24,08,29,6.10
2007,09,24,08,30,6.10
2007,09,24,08,31,6.20
2007,09,24,08,32,6.20
2007,09,24,08,33,6.30
2007,09,24,08,34,6.30
2007,09,24,08,35,6.30
2007,09,24,08,36,6.40
2007,09,24,08,37,6.40
2007,09,24,08,38,6.40
2007,09,24,08,39,6.50
2007,09,24,08,40,6.50
2007,09,24,08,41,6.60
2007,09,24,08,42,6.60
2007,09,24,08,43,6.60
2007,09,24,08,44,6.70
2007,09,24,08,45,6.70
2007,09,24,08,46,6.80
2007,09,24,08,47,6.80
2007,09,24,08,48,6.80
2007,09,24,08,49,6.80
2007,09,24,08,50,6.80
2007,09,24,08,51,6.90
2007,09,24,08,52,6.90
2007,09,24,08,53,6.90
2007,09,24,08,54,6.90
2007,09,24,08,55,6.80
2007,09,24,08,56,6.80
2007,09,24,08,57,6.80
2007,09,24,08,58,6.80
2007,09,24,08,59,6.80
2007,09,24,09,00,6.80
2007,09,24,09,01,6.80
2007,09,24,09,02,6.80
2007,09,24,09,03,6.90
2007,09,24,09,04,6.90
2007,09,24,09,05,6.90
2007,09,24,09,06,6.90
2007,09,24,09,07,7.00
2007,09,24,09,08,7.00
2007,09,24,09,09,7.10
2007,09,24,09,10,7.10
2007,09,24,09,11,7.10
2007,09,24,09,12,7.10
2007,09,24,09,13,7.10
2007,09,24,09,14,7.10
2007,09,24,09,15,7.10
2007,09,24,09,16,7.10
2007,09,24,09,17,7.20
2007,09,24,09,18,7.20
2007,09,24,09,19,7.20
2007,09,24,09,20,7.20
2007,09,24,09,21,7.20
2007,09,24,09,22,7.20
2007,09,24,09,23,7.20
2007,09,24,09,24,7.30
2007,09,24,09,25,7.30
2007,09,24,09,26,7.40
2007,09,24,09,27,7.40
2007,09,24,09,28,7.40
2007,09,24,09,29,7.50
2007,09,24,09,30,7.50
2007,09,24,09,31,7.60
2007,09,24,09,32,7.60
2007,09,24,09,33,7.60
2007,09,24,09,34,7.60
2007,09,24,09,35,7.50
2007,09,24,09,36,7.50
2007,09,24,09,37,7.50
2007,09,24,09,38,7.40
2007,09,24,09,39,7.40
2007,09,24,09,40,7.50
2007,09,24,09,41,7.50
2007,09,24,09,42,7.50
2007,09,24,09,43,7.60
2007,09,24,09,44,7.60
2007,09,24,09,45,7.70
2007,09,24,09,46,7.70
2007,09,24,09,47,7.70
2007,09,24,09,48,7.70
2007,09,24,09,49,7.70
2007,09,24,09,50,7.80
2007,09,24,09,51,7.90
2007,09,24,09,52,8.00
2007,09,24,09,53,8.10
2007,09,24,09,54,8.10
2007,09,24,09,55,8.10
2007,09,24,09,56,8.10
2007,09,24,09,57,8.10
2007,09,24,09,58,8.20
2007,09,24,09,59,8.30
2007,09,24,10,00,8.40
2007,09,24,10,01,8.40
2007,09,24,10,02,8.50
2007,09,24,10,03,8.50
2007,09,24,10,04,8.60
2007,09,24,10,05,8.60
2007,09,24,10,06,8.60
2007,09,24,10,07,8.50
2007,09,24,10,08,8.50
2007,09,24,10,09,8.50
2007,09,24,10,10,8.50
2007,09,24,10,11,8.40
2007,09,24,10,12,8.40
2007,09,24,10,13,8.40
2007,09,24,10,14,8.40
2007,09,24,10,15,8.40
2007,09,24,10,16,8.40
2007,09,24,10,17,8.40
2007,09,24,10,18,8.40
2007,09,24,10,19,8.40
2007,09,24,10,20,8.40
2007,09,24,10,21,8.30
2007,09,24,10,22,8.30
2007,09,24,10,23,8.30
2007,09,24,10,24,8.40
2007,09,24,10,25,8.40
2007,09,24,10,26,8.40
2007,09,24,10,27,8.50
2007,09,24,10,28,8.60
2007,09,24,10,29,8.60
2007,09,24,10,30,8.70
2007,09,24,10,31,8.80
2007,09,24,10,32,8.80
2007,09,24,10,33,8.90
2007,09,24,10,34,9.00
2007,09,24,10,35,9.10
2007,09,24,10,36,9.20
2007,09,24,10,37,9.30
2007,09,24,10,38,9.40
2007,09,24,10,39,9.60
2007,09,24,10,40,9.60
2007,09,24,10,41,9.70
2007,09,24,10,42,9.70
2007,09,24,10,43,9.80
2007,09,24,10,44,9.80
2007,09,24,10,45,9.80
2007,09,24,10,46,9.80
2007,09,24,10,47,9.70
2007,09,24,10,48,9.60
2007,09,24,10,49,9.60
2007,09,24,10,50,9.60
2007,09,24,10,51,9.60
2007,09,24,10,52,9.60
2007,09,24,10,53,9.60
2007,09,24,10,54,9.70
2007,09,24,10,55,9.80
2007,09,24,10,56,9.90
2007,09,24,10,57,9.90
2007,09,24,10,58,9.90
2007,09,24,10,59,10.00
2007,09,24,11,00,10.10
2007,09,24,11,01,10.20
2007,09,24,11,02,10.30
2007,09,24,11,03,10.40
2007,09,24,11,04,10.40
2007,09,24,11,05,10.50
2007,09,24,11,06,10.50
2007,09,24,11,07,10.50
2007,09,24,11,08,10.40
2007,09,24,11,09,10.30
2007,09,24,11,10,10.30
2007,09,24,11,11,10.20
2007,09,24,11,12,10.30
2007,09,24,11,13,10.30
2007,09,24,11,14,10.30
2007,09,24,11,15,10.40
2007,09,24,11,16,10.50
2007,09,24,11,17,10.50
2007,09,24,11,18,10.60
2007,09,24,11,19,10.70
2007,09,24,11,20,10.70
2007,09,24,11,21,10.70
2007,09,24,11,22,10.70
2007,09,24,11,23,10.80
2007,09,24,11,24,10.80
2007,09,24,11,25,10.80
2007,09,24,11,26,10.70
2007,09,24,11,27,10.70
2007,09,24,11,28,10.70
2007,09,24,11,29,10.80
2007,09,24,11,30,10.80
2007,09,24,11,31,10.70
2007,09,24,11,32,10.60
2007,09,24,11,33,10.50
2007,09,24,11,34,10.50
2007,09,24,11,35,10.40
2007,09,24,11,36,10.30
2007,09,24,11,37,10.30
2007,09,24,11,38,10.40
2007,09,24,11,39,10.40
2007,09,24,11,40,10.40
2007,09,24,11,41,10.50
2007,09,24,11,42,10.60
2007,09,24,11,43,10.50
2007,09,24,11,44,10.40
2007,09,24,11,45,10.40
2007,09,24,11,46,10.30
2007,09,24,11,47,10.30
2007,09,24,11,48,10.30
2007,09,24,11,49,10.30
2007,09,24,11,50,10.30
2007,09,24,11,51,10.30
2007,09,24,11,52,10.30
2007,09,24,11,53,10.40
2007,09,24,11,54,10.40
2007,09,24,11,55,10.50
2007,09,24,11,56,10.50
2007,09,24,11,57,10.60
2007,09,24,11,58,10.70
2007,09,24,11,59,10.70
2007,09,24,12,00,10.70
2007,09,24,12,01,10.70
2007,09,24,12,02,10.70
2007,09,24,12,03,10.70
2007,09,24,12,04,10.80
2007,09,24,12,05,10.80
2007,09,24,12,06,10.80
2007,09,24,12,07,10.80
2007,09,24,12,08,10.50
2007,09,24,12,09,10.40
2007,09,24,12,10,10.40
2007,09,24,12,11,10.40
2007,09,24,12,12,10.30
2007,09,24,12,13,10.30
2007,09,24,12,14,10.20
2007,09,24,12,15,10.10
2007,09,24,12,16,10.10
2007,09,24,12,17,10.10
2007,09,24,12,18,10.10
2007,09,24,12,19,10.10
2007,09,24,12,20,10.00
2007,09,24,12,21,9.90
2007,09,24,12,22,9.90
2007,09,24,12,23,10.00
2007,09,24,12,24,10.10
2007,09,24,12,25,10.20
2007,09,24,12,26,10.30
2007,09,24,12,27,10.30
2007,09,24,12,28,10.30
2007,09,24,12,29,10.20
2007,09,24,12,30,10.20
2007,09,24,12,31,10.30
2007,09,24,12,32,10.20
2007,09,24,12,33,10.30
2007,09,24,12,34,10.40
2007,09,24,12,35,10.50
2007,09,24,12,36,10.60
2007,09,24,12,37,10.80
2007,09,24,12,38,10.90
2007,09,24,12,39,11.10
2007,09,24,12,40,11.20
2007,09,24,12,41,11.20
2007,09,24,12,42,11.10
2007,09,24,12,43,11.10
2007,09,24,12,44,11.10
2007,09,24,12,45,10.90
2007,09,24,12,46,10.80
2007,09,24,12,47,10.70
2007,09,24,12,48,10.70
2007,09,24,12,49,10.60
2007,09,24,12,50,10.60
2007,09,24,12,51,10.70
2007,09,24,12,52,10.80
2007,09,24,12,53,10.80
2007,09,24,12,54,10.80
2007,09,24,12,55,10.90
2007,09,24,12,56,10.80
2007,09,24,12,57,10.60
2007,09,24,12,58,10.50
2007,09,24,12,59,10.50
2007,09,24,13,00,10.40
2007,09,24,13,01,10.30
2007,09,24,13,02,10.10
2007,09,24,13,03,10.00
2007,09,24,13,04,9.80
2007,09,24,13,05,9.80
2007,09,24,13,06,9.70
2007,09,24,13,07,9.70
2007,09,24,13,08,9.70
2007,09,24,13,09,9.60
2007,09,24,13,10,9.60
2007,09,24,13,11,9.50
2007,09,24,13,12,9.40
2007,09,24,13,13,9.40
2007,09,24,13,14,9.30
2007,09,24,13,15,9.30
2007,09,24,13,16,9.40
2007,09,24,13,17,9.40
2007,09,24,13,18,9.50
2007,09,24,13,19,9.50
2007,09,24,13,20,9.60
2007,09,24,13,21,9.60
2007,09,24,13,22,9.70
2007,09,24,13,23,9.80
2007,09,24,13,24,9.80
2007,09,24,13,25,9.90
2007,09,24,13,26,9.90
2007,09,24,13,27,10.00
2007,09,24,13,28,10.10
2007,09,24,13,29,10.00
2007,09,24,13,30,9.90
2007,09,24,13,31,9.90
2007,09,24,13,32,9.80
2007,09,24,13,33,9.80
2007,09,24,13,34,9.80
2007,09,24,13,35,9.70
2007,09,24,13,36,9.60
2007,09,24,13,37,9.60
2007,09,24,13,38,9.50
2007,09,24,13,39,9.60
2007,09,24,13,40,9.60
2007,09,24,13,41,9.60
2007,09,24,13,42,9.70
2007,09,24,13,43,9.70
2007,09,24,13,44,9.70
2007,09,24,13,45,9.70
2007,09,24,13,46,9.60
2007,09,24,13,47,9.60
2007,09,24,13,48,9.60
2007,09,24,13,49,9.60
2007,09,24,13,50,9.60
2007,09,24,13,51,9.60
2007,09,24,13,52,9.60
2007,09,24,13,53,9.70
2007,09,24,13,54,9.80
2007,09,24,13,55,9.80
2007,09,24,13,56,9.90
2007,09,24,13,57,10.00
2007,09,24,13,58,10.10
2007,09,24,13,59,10.10
2007,09,24,14,00,10.10
2007,09,24,14,01,10.10
2007,09,24,14,02,10.20
2007,09,24,14,03,10.20
2007,09,24,14,04,10.30
2007,09,24,14,05,10.30
2007,09,24,14,06,10.30
2007,09,24,14,07,10.20
2007,09,24,14,08,10.20
2007,09,24,14,09,10.20
2007,09,24,14,10,10.10
2007,09,24,14,11,10.00
2007,09,24,14,12,10.00
2007,09,24,14,13,10.00
2007,09,24,14,14,10.00
2007,09,24,14,15,10.00
2007,09,24,14,16,10.00
2007,09,24,14,17,10.00
2007,09,24,14,18,10.00
2007,09,24,14,19,9.90
2007,09,24,14,20,9.90
2007,09,24,14,21,9.80
2007,09,24,14,22,9.80
2007,09,24,14,23,9.80
2007,09,24,14,24,9.90
2007,09,24,14,25,9.90
2007,09,24,14,26,9.90
2007,09,24,14,27,9.90
2007,09,24,14,28,10.00
2007,09,24,14,29,10.00
2007,09,24,14,30,10.10
2007,09,24,14,31,10.10
2007,09,24,14,32,10.20
2007,09,24,14,33,10.20
2007,09,24,14,34,10.20
2007,09,24,14,35,10.10
2007,09,24,14,36,10.20
2007,09,24,14,37,10.20
2007,09,24,14,38,10.20
2007,09,24,14,39,10.10
2007,09,24,14,40,10.00
2007,09,24,14,41,9.80
2007,09,24,14,42,9.70
2007,09,24,14,43,9.60
2007,09,24,14,44,9.60
2007,09,24,14,45,9.60
2007,09,24,14,46,9.60
2007,09,24,14,47,9.60
2007,09,24,14,48,9.70
2007,09,24,14,49,9.60
2007,09,24,14,50,9.60
2007,09,24,14,51,9.50
2007,09,24,14,52,9.40
2007,09,24,14,53,9.40
2007,09,24,14,54,9.40
2007,09,24,14,55,9.50
2007,09,24,14,56,9.60
2007,09,24,14,57,9.60
2007,09,24,14,58,9.70
2007,09,24,14,59,9.80
2007,09,24,15,00,9.80
2007,09,24,15,01,9.80
2007,09,24,15,02,9.70
2007,09,24,15,03,9.70
2007,09,24,15,04,9.70
2007,09,24,15,05,9.70
2007,09,24,15,06,9.60
2007,09,24,15,07,9.60
2007,09,24,15,08,9.60
2007,09,24,15,09,9.60
2007,09,24,15,10,9.50
2007,09,24,15,11,9.50
2007,09,24,15,12,9.40
2007,09,24,15,13,9.40
2007,09,24,15,14,9.30
2007,09,24,15,15,9.30
2007,09,24,15,16,9.30
2007,09,24,15,17,9.30
2007,09,24,15,18,9.30
2007,09,24,15,19,9.30
2007,09,24,15,20,9.30
2007,09,24,15,21,9.30
2007,09,24,15,22,9.30
2007,09,24,15,23,9.30
2007,09,24,15,24,9.30
2007,09,24,15,25,9.30
2007,09,24,15,26,9.40
2007,09,24,15,27,9.40
2007,09,24,15,28,9.40
2007,09,24,15,29,9.30
2007,09,24,15,30,9.30
2007,09,24,15,31,9.30
2007,09,24,15,32,9.30
2007,09,24,15,33,9.30
2007,09,24,15,34,9.20
2007,09,24,15,35,9.20
2007,09,24,15,36,9.20
2007,09,24,15,37,9.20
2007,09,24,15,38,9.30
2007,09,24,15,39,9.30
2007,09,24,15,40,9.40
2007,09,24,15,41,9.50
2007,09,24,15,42,9.60
2007,09,24,15,43,9.60
2007,09,24,15,44,9.60
2007,09,24,15,45,9.60
2007,09,24,15,46,9.60
2007,09,24,15,47,9.60
2007,09,24,15,48,9.60
2007,09,24,15,49,9.60
2007,09,24,15,50,9.70
2007,09,24,15,51,9.70
2007,09,24,15,52,9.70
2007,09,24,15,53,9.70
2007,09,24,15,54,9.60
2007,09,24,15,55,9.60
2007,09,24,15,56,9.60
2007,09,24,15,57,9.60
2007,09,24,15,58,9.60
2007,09,24,15,59,9.50
2007,09,24,16,00,9.50
2007,09,24,16,01,9.50
2007,09,24,16,02,9.50
2007,09,24,16,03,9.50
2007,09,24,16,04,9.50
2007,09,24,16,05,9.60
2007,09,24,16,06,9.60
2007,09,24,16,07,9.60
2007,09,24,16,08,9.70
2007,09,24,16,09,9.70
2007,09,24,16,10,9.70
2007,09,24,16,11,9.80
2007,09,24,16,12,9.80
2007,09,24,16,13,9.90
2007,09,24,16,14,10.00
2007,09,24,16,15,10.10
2007,09,24,16,16,10.20
2007,09,24,16,17,10.30
2007,09,24,16,18,10.40
2007,09,24,16,19,10.50
2007,09,24,16,20,10.60
2007,09,24,16,21,10.80
2007,09,24,16,22,10.80
2007,09,24,16,23,10.90
2007,09,24,16,24,11.00
2007,09,24,16,25,11.10
2007,09,24,16,26,11.20
2007,09,24,16,27,11.20
2007,09,24,16,28,11.20
2007,09,24,16,29,11.30
2007,09,24,16,30,11.30
2007,09,24,16,31,11.30
2007,09,24,16,32,11.40
2007,09,24,16,33,11.40
2007,09,24,16,34,11.50
2007,09,24,16,35,11.60
2007,09,24,16,36,11.70
2007,09,24,16,37,11.70
2007,09,24,16,38,11.70
2007,09,24,16,39,11.70
2007,09,24,16,40,11.80
2007,09,24,16,41,11.80
2007,09,24,16,42,11.90
2007,09,24,16,43,11.80
2007,09,24,16,44,11.80
2007,09,24,16,45,11.70
2007,09,24,16,46,11.60
2007,09,24,16,47,11.60
2007,09,24,16,48,11.60
2007,09,24,16,49,11.70
2007,09,24,16,50,11.70
2007,09,24,16,51,11.70
2007,09,24,16,52,11.70
2007,09,24,16,53,11.70
2007,09,24,16,54,11.60
2007,09,24,16,55,11.60
2007,09,24,16,56,11.50
2007,09,24,16,57,11.40
2007,09,24,16,58,11.30
2007,09,24,16,59,11.30
2007,09,24,17,00,11.30
2007,09,24,17,01,11.30
2007,09,24,17,02,11.30
2007,09,24,17,03,11.30
2007,09,24,17,04,11.30
2007,09,24,17,05,11.20
2007,09,24,17,06,11.20
2007,09,24,17,07,11.20
2007,09,24,17,08,11.20
2007,09,24,17,09,11.20
2007,09,24,17,10,11.20
2007,09,24,17,11,11.20
2007,09,24,17,12,11.20
2007,09,24,17,13,11.20
2007,09,24,17,14,11.20
2007,09,24,17,15,11.20
2007,09,24,17,16,11.20
2007,09,24,17,17,11.20
2007,09,24,17,18,11.20
2007,09,24,17,19,11.20
2007,09,24,17,20,11.10
2007,09,24,17,21,11.10
2007,09,24,17,22,11.10
2007,09,24,17,23,11.10
2007,09,24,17,24,11.10
2007,09,24,17,25,11.10
2007,09,24,17,26,11.10
2007,09,24,17,27,11.10
2007,09,24,17,28,11.10
2007,09,24,17,29,11.00
2007,09,24,17,30,11.00
2007,09,24,17,31,10.90
2007,09,24,17,32,10.90
2007,09,24,17,33,10.90
2007,09,24,17,34,10.90
2007,09,24,17,35,10.90
2007,09,24,17,36,10.90
2007,09,24,17,37,10.90
2007,09,24,17,38,10.80
2007,09,24,17,39,10.90
2007,09,24,17,40,10.80
2007,09,24,17,41,10.90
2007,09,24,17,42,10.90
2007,09,24,17,43,10.90
2007,09,24,17,44,11.00
2007,09,24,17,45,11.00
2007,09,24,17,46,11.00
2007,09,24,17,47,11.00
2007,09,24,17,48,11.00
2007,09,24,17,49,11.00
2007,09,24,17,50,11.00
2007,09,24,17,51,11.00
2007,09,24,17,52,11.10
2007,09,24,17,53,11.10
2007,09,24,17,54,11.10
2007,09,24,17,55,11.10
2007,09,24,17,56,11.10
2007,09,24,17,57,11.20
2007,09,24,17,58,11.20
2007,09,24,17,59,11.20
2007,09,24,18,00,11.20
2007,09,24,18,01,11.30
2007,09,24,18,02,11.30
2007,09,24,18,03,11.30
2007,09,24,18,04,11.30
2007,09,24,18,05,11.30
2007,09,24,18,06,11.30
2007,09,24,18,07,11.30
2007,09,24,18,08,11.30
2007,09,24,18,09,11.40
2007,09,24,18,10,11.40
2007,09,24,18,11,11.40
2007,09,24,18,12,11.40
2007,09,24,18,13,11.50
2007,09,24,18,14,11.50
2007,09,24,18,15,11.60
2007,09,24,18,16,11.60
2007,09,24,18,17,11.60
2007,09,24,18,18,11.70
2007,09,24,18,19,11.70
2007,09,24,18,20,11.70
2007,09,24,18,21,11.80
2007,09,24,18,22,11.80
2007,09,24,18,23,11.80
2007,09,24,18,24,11.80
2007,09,24,18,25,11.90
2007,09,24,18,26,11.90
2007,09,24,18,27,11.90
2007,09,24,18,28,11.90
2007,09,24,18,29,11.90
2007,09,24,18,30,12.00
2007,09,24,18,31,12.00
2007,09,24,18,32,12.00
2007,09,24,18,33,12.00
2007,09,24,18,34,12.00
2007,09,24,18,35,12.00
2007,09,24,18,36,12.00
2007,09,24,18,37,12.00
2007,09,24,18,38,12.00
2007,09,24,18,39,12.00
2007,09,24,18,40,12.00